Location: South Troy
(42.7009°N, 73.6726°W)
Time: 17:11:24
(UTC+00:00)

Cosmos 1607 - Pass Details

Date: 20 September 2024
Orbit: 914 x 987 km, 65.0° (Epoch: 09 October)

Event Time Altitude Azimuth Distance (km) Brightness Sun altitude
Rises 23:11:34 0° 190° (S) 3,674 7.1 -4.0°
Reaches altitude 10° 23:14:14 10° 184° (S) 2,733 6.4 -4.4°
Maximum altitude 23:20:15 44° 114° (ESE) 1,334 4.4 -5.5°
Drops below altitude 10° 23:26:18 10° 45° (NE) 2,744 6.0 -6.7°
Sets 23:28:59 0° 39° (NE) 3,690 6.7 -7.1°
